| time (UTC) | temp F | wind direction | speed MPH | gust MPH | rain 1hr in | rain 24hr in | rain mn in | humidity % | barometer mb |
| 20260507185516 | 54 | 126 | 3.0 | 7.0 | 0.00 | 0.02 | 0.02 | 71 | 1014.4 |
| 20260507184536 | 54 | 137 | 3.0 | 5.0 | 0.00 | 0.02 | 0.02 | 71 | 1014.4 |
| 20260507183516 | 54 | 141 | 2.0 | 7.0 | 0.00 | 0.02 | 0.02 | 69 | 1014.4 |
| 20260507182536 | 54 | 126 | 4.0 | 9.0 | 0.00 | 0.02 | 0.02 | 68 | 1014.4 |
| 20260507181516 | 55 | 134 | 5.0 | 9.0 | 0.00 | 0.02 | 0.02 | 69 | 1014.4 |
| 20260507180516 | 55 | 128 | 4.0 | 10.0 | 0.00 | 0.02 | 0.02 | 69 | 1014.3 |
| 20260507175516 | 55 | 170 | 4.0 | 9.0 | 0.00 | 0.02 | 0.02 | 69 | 1014.3 |
| 20260507174517 | 56 | 126 | 4.0 | 10.0 | 0.00 | 0.02 | 0.02 | 70 | 1014.3 |
| 20260507173517 | 56 | 126 | 5.0 | 9.0 | 0.00 | 0.02 | 0.02 | 71 | 1014.3 |
| 20260507172517 | 55 | 166 | 3.0 | 8.0 | 0.00 | 0.02 | 0.02 | 72 | 1014.4 |
| 20260507171517 | 56 | 137 | 5.0 | 10.0 | 0.00 | 0.02 | 0.02 | 70 | 1014.6 |
| 20260507170516 | 56 | 142 | 4.0 | 9.0 | 0.00 | 0.02 | 0.02 | 70 | 1014.5 |
| 20260507165536 | 56 | 115 | 5.0 | 9.0 | 0.00 | 0.02 | 0.02 | 72 | 1014.5 |
| 20260507164536 | 55 | 123 | 5.0 | 10.0 | 0.00 | 0.02 | 0.02 | 75 | 1014.5 |
| 20260507163516 | 54 | 132 | 4.0 | 10.0 | 0.00 | 0.02 | 0.02 | 75 | 1014.5 |
| 20260507162516 | 54 | 126 | 5.0 | 10.0 | 0.00 | 0.02 | 0.02 | 76 | 1014.5 |
| 20260507161516 | 54 | 114 | 5.0 | 10.0 | 0.00 | 0.02 | 0.02 | 76 | 1014.5 |
| 20260507160516 | 54 | 117 | 4.0 | 8.0 | 0.00 | 0.02 | 0.02 | 76 | 1014.5 |
| 20260507155516 | 54 | 122 | 5.0 | 10.0 | 0.00 | 0.05 | 0.02 | 75 | 1014.6 |
| 20260507154516 | 54 | 123 | 6.0 | 11.0 | 0.00 | 0.05 | 0.02 | 75 | 1014.7 |
| 20260507153516 | 54 | 117 | 4.0 | 12.0 | 0.00 | 0.05 | 0.02 | 79 | 1014.7 |
| 20260507152516 | 53 | 167 | 7.0 | 13.0 | 0.00 | 0.05 | 0.02 | 76 | 1014.8 |
| 20260507151516 | 53 | 175 | 8.0 | 14.0 | 0.00 | 0.05 | 0.02 | 74 | 1014.8 |
| 20260507150516 | 54 | 176 | 6.0 | 13.0 | 0.00 | 0.05 | 0.02 | 74 | 1014.8 |
| 20260507145516 | 55 | 173 | 7.0 | 16.0 | 0.00 | 0.07 | 0.02 | 73 | 1014.8 |
| 20260507144516 | 55 | 176 | 6.0 | 11.0 | 0.00 | 0.07 | 0.02 | 74 | 1014.9 |
| 20260507143516 | 55 | 169 | 5.0 | 12.0 | 0.00 | 0.07 | 0.02 | 77 | 1014.9 |
| 20260507142516 | 54 | 238 | 3.0 | 9.0 | 0.00 | 0.07 | 0.02 | 82 | 1014.9 |
| 20260507141516 | 52 | 194 | 2.0 | 4.0 | 0.01 | 0.07 | 0.02 | 83 | 1015.0 |
| 20260507140516 | 52 | 181 | 1.0 | 3.0 | 0.01 | 0.07 | 0.02 | 84 | 1015.1 |
| 20260507135515 | 51 | 178 | 2.0 | 4.0 | 0.01 | 0.10 | 0.02 | 83 | 1015.1 |
| 20260507134536 | 51 | 176 | 1.0 | 6.0 | 0.01 | 0.10 | 0.02 | 85 | 1015.1 |
| 20260507133516 | 50 | 175 | 2.0 | 4.0 | 0.01 | 0.10 | 0.02 | 84 | 1015.2 |
| 20260507132516 | 50 | 175 | 2.0 | 8.0 | 0.01 | 0.10 | 0.02 | 84 | 1015.4 |
| 20260507131516 | 51 | 177 | 7.0 | 16.0 | 0.00 | 0.09 | 0.01 | 79 | 1015.5 |
| 20260507130535 | 51 | 169 | 8.0 | 14.0 | 0.00 | 0.09 | 0.01 | 77 | 1015.3 |
| 20260507125536 | 51 | 167 | 5.0 | 12.0 | 0.00 | 0.09 | 0.01 | 76 | 1015.3 |
| 20260507124535 | 52 | 166 | 5.0 | 13.0 | 0.00 | 0.09 | 0.01 | 76 | 1015.4 |
| 20260507123516 | 52 | 171 | 7.0 | 15.0 | 0.00 | 0.09 | 0.01 | 76 | 1015.4 |
| 20260507122515 | 53 | 170 | 9.0 | 16.0 | 0.00 | 0.09 | 0.01 | 71 | 1015.5 |
| 20260507121516 | 53 | 193 | 4.0 | 10.0 | 0.00 | 0.09 | 0.01 | 70 | 1015.5 |
| 20260507120515 | 53 | 165 | 7.0 | 14.0 | 0.00 | 0.09 | 0.01 | 70 | 1015.5 |
| 20260507115516 | 54 | 168 | 6.0 | 10.0 | 0.00 | 0.09 | 0.01 | 81 | 1015.6 |
| 20260507114515 | 53 | 155 | 5.0 | 11.0 | 0.00 | 0.09 | 0.01 | 83 | 1015.6 |
| 20260507113515 | 54 | 172 | 7.0 | 11.0 | 0.00 | 0.09 | 0.01 | 80 | 1015.7 |
| 20260507112515 | 55 | 136 | 4.0 | 10.0 | 0.00 | 0.09 | 0.01 | 81 | 1015.6 |
| 20260507111516 | 55 | 173 | 5.0 | 12.0 | 0.00 | 0.09 | 0.01 | 80 | 1015.6 |
| 20260507110515 | 54 | 131 | 6.0 | 12.0 | 0.00 | 0.09 | 0.01 | 84 | 1015.6 |
| 20260507105515 | 54 | 144 | 7.0 | 11.0 | 0.00 | 0.09 | 0.01 | 85 | 1015.6 |
| 20260507104515 | 53 | 165 | 5.0 | 11.0 | 0.00 | 0.09 | 0.01 | 86 | 1015.6 |
| 20260507103535 | 53 | 152 | 6.0 | 12.0 | 0.00 | 0.09 | 0.01 | 87 | 1015.6 |
| 20260507102535 | 53 | 168 | 7.0 | 14.0 | 0.00 | 0.09 | 0.01 | 86 | 1015.6 |
| 20260507101517 | 53 | 136 | 6.0 | 12.0 | 0.00 | 0.09 | 0.01 | 89 | 1015.7 |
| 20260507100516 | 52 | 156 | 7.0 | 14.0 | 0.00 | 0.09 | 0.01 | 91 | 1015.7 |
| 20260507095515 | 51 | 152 | 5.0 | 11.0 | 0.00 | 0.09 | 0.01 | 94 | 1015.6 |
| 20260507094515 | 50 | 171 | 5.0 | 10.0 | 0.00 | 0.09 | 0.01 | 95 | 1015.6 |
| 20260507093515 | 50 | 163 | 5.0 | 12.0 | 0.00 | 0.09 | 0.01 | 95 | 1015.6 |
| 20260507092515 | 50 | 154 | 5.0 | 12.0 | 0.00 | 0.09 | 0.01 | 96 | 1015.6 |
| 20260507091516 | 50 | 150 | 5.0 | 11.0 | 0.00 | 0.09 | 0.01 | 96 | 1015.5 |
| 20260507090515 | 50 | 165 | 7.0 | 14.0 | 0.00 | 0.09 | 0.01 | 97 | 1015.5 |
| 20260507085516 | 50 | 163 | 6.0 | 14.0 | 0.00 | 0.09 | 0.01 | 97 | 1015.5 |
| 20260507084516 | 50 | 164 | 6.0 | 11.0 | 0.00 | 0.09 | 0.01 | 98 | 1015.5 |
| 20260507083515 | 49 | 160 | 6.0 | 14.0 | 0.00 | 0.09 | 0.01 | 98 | 1015.5 |
| 20260507082515 | 49 | 159 | 6.0 | 13.0 | 0.00 | 0.09 | 0.01 | 98 | 1015.4 |
| 20260507081516 | 49 | 169 | 8.0 | 13.0 | 0.00 | 0.09 | 0.01 | 99 | 1015.5 |
| 20260507080655 | 49 | 165 | 5.0 | 11.0 | 0.00 | 0.09 | 0.01 | 98 | 1015.5 |
| 20260507075515 | 49 | 156 | 5.0 | 11.0 | 0.00 | 0.09 | 0.01 | 99 | 1015.4 |
| 20260507074515 | 49 | 153 | 6.0 | 10.0 | 0.00 | 0.09 | 0.01 | 99 | 1015.4 |
| 20260507073515 | 48 | 165 | 5.0 | 9.0 | 0.00 | 0.09 | 0.01 | 98 | 1015.3 |
| 20260507072515 | 48 | 160 | 4.0 | 9.0 | 0.00 | 0.09 | 0.01 | 98 | 1015.3 |
| 20260507071516 | 48 | 174 | 4.0 | 8.0 | 0.00 | 0.09 | 0.01 | 99 | 1015.2 |
| 20260507070515 | 48 | 173 | 5.0 | 8.0 | 0.00 | 0.09 | 0.01 | 98 | 1015.1 |
| 20260507065535 | 47 | 162 | 3.0 | 8.0 | 0.00 | 0.09 | 0.01 | 99 | 1015.1 |
| 20260507064515 | 47 | 143 | 2.0 | 6.0 | 0.00 | 0.09 | 0.01 | 98 | 1015.1 |
| 20260507063515 | 47 | 161 | 1.0 | 4.0 | 0.00 | 0.09 | 0.01 | 98 | 1015.1 |
| 20260507062515 | 46 | 163 | 1.0 | 4.0 | 0.00 | 0.09 | 0.01 | 98 | 1015.1 |
| 20260507061516 | 46 | 161 | 1.0 | 4.0 | 0.00 | 0.09 | 0.01 | 98 | 1015.1 |
| 20260507060515 | 46 | 154 | 2.0 | 5.0 | 0.00 | 0.09 | 0.01 | 98 | 1015.0 |
| 20260507055515 | 46 | 147 | 2.0 | 5.0 | 0.00 | 0.09 | 0.01 | 98 | 1014.9 |
| 20260507054515 | 46 | 177 | 2.0 | 5.0 | 0.00 | 0.09 | 0.01 | 98 | 1014.9 |
| 20260507053515 | 46 | 171 | 3.0 | 6.0 | 0.00 | 0.09 | 0.01 | 98 | 1014.8 |
| 20260507052515 | 46 | 167 | 2.0 | 6.0 | 0.00 | 0.09 | 0.01 | 98 | 1014.8 |
| 20260507051516 | 45 | 154 | 1.0 | 5.0 | 0.00 | 0.09 | 0.01 | 98 | 1014.7 |
| 20260507050515 | 45 | 154 | 3.0 | 6.0 | 0.00 | 0.09 | 0.01 | 98 | 1014.7 |
| 20260507045515 | 45 | 132 | 3.0 | 8.0 | 0.00 | 0.09 | 0.01 | 98 | 1014.7 |
| 20260507044517 | 45 | 141 | 2.0 | 6.0 | 0.00 | 0.09 | 0.01 | 98 | 1014.6 |
| 20260507043517 | 45 | 128 | 2.0 | 6.0 | 0.00 | 0.09 | 0.01 | 98 | 1014.5 |
| 20260507042517 | 45 | 135 | 1.0 | 3.0 | 0.00 | 0.09 | 0.01 | 98 | 1014.5 |
| 20260507041517 | 45 | 130 | 2.0 | 7.0 | 0.00 | 0.09 | 0.01 | 98 | 1014.6 |
| 20260507040517 | 45 | 127 | 3.0 | 7.0 | 0.00 | 0.09 | 0.01 | 98 | 1014.6 |
| 20260507035517 | 45 | 143 | 3.0 | 5.0 | 0.00 | 0.09 | 0.01 | 98 | 1014.6 |
| 20260507034517 | 45 | 135 | 2.0 | 8.0 | 0.00 | 0.09 | 0.01 | 97 | 1014.5 |
| 20260507033517 | 45 | 124 | 3.0 | 8.0 | 0.00 | 0.09 | 0.01 | 97 | 1014.5 |
| 20260507032517 | 45 | 135 | 4.0 | 7.0 | 0.01 | 0.09 | 0.01 | 97 | 1014.5 |
| 20260507031517 | 45 | 156 | 2.0 | 7.0 | 0.01 | 0.09 | 0.01 | 97 | 1014.5 |
| 20260507030537 | 45 | 165 | 1.0 | 4.0 | 0.01 | 0.09 | 0.01 | 97 | 1014.4 |
| 20260507025517 | 45 | 166 | 1.0 | 5.0 | 0.01 | 0.09 | 0.01 | 97 | 1014.4 |
| 20260507024536 | 45 | 161 | 1.0 | 4.0 | 0.01 | 0.09 | 0.01 | 97 | 1014.4 |
| 20260507023517 | 45 | 163 | 1.0 | 2.0 | 0.01 | 0.09 | 0.01 | 97 | 1014.3 |
| 20260507022517 | 45 | 162 | 1.0 | 5.0 | 0.00 | 0.09 | 0.00 | 97 | 1014.4 |
| 20260507021517 | 46 | 155 | 2.0 | 5.0 | 0.00 | 0.09 | 0.00 | 97 | 1014.5 |
| 20260507020517 | 46 | 142 | 2.0 | 5.0 | 0.00 | 0.09 | 0.00 | 97 | 1014.5 |
| 20260507015516 | 46 | 136 | 1.0 | 4.0 | 0.00 | 0.09 | 0.00 | 97 | 1014.5 |
| 20260507014516 | 46 | 136 | 1.0 | 4.0 | 0.00 | 0.09 | 0.00 | 97 | 1014.4 |
| 20260507013517 | 46 | 135 | 2.0 | 4.0 | 0.00 | 0.09 | 0.00 | 97 | 1014.4 |
| 20260507012537 | 46 | 130 | 2.0 | 5.0 | 0.00 | 0.09 | 0.00 | 97 | 1014.4 |
| 20260507011516 | 46 | 127 | 1.0 | 7.0 | 0.00 | 0.09 | 0.00 | 97 | 1014.4 |
| 20260507010516 | 46 | 132 | 3.0 | 7.0 | 0.00 | 0.09 | 0.00 | 97 | 1014.4 |
| 20260507005516 | 47 | 128 | 2.0 | 8.0 | 0.00 | 0.09 | 0.00 | 97 | 1014.4 |
| 20260507004517 | 47 | 135 | 3.0 | 7.0 | 0.00 | 0.09 | 0.00 | 97 | 1014.4 |
| 20260507003516 | 47 | 123 | 4.0 | 8.0 | 0.00 | 0.09 | 0.00 | 97 | 1014.4 |
| 20260507002516 | 47 | 127 | 3.0 | 8.0 | 0.00 | 0.09 | 0.00 | 97 | 1014.5 |
| 20260507001536 | 47 | 133 | 3.0 | 7.0 | 0.00 | 0.09 | 0.00 | 97 | 1014.6 |
| 20260507000536 | 47 | 137 | 1.0 | 5.0 | 0.00 | 0.09 | 0.00 | 97 | 1014.7 |
| 20260506235516 | 47 | 130 | 3.0 | 7.0 | 0.00 | 0.09 | 0.00 | 97 | 1014.6 |
| 20260506234536 | 47 | 128 | 2.0 | 7.0 | 0.00 | 0.09 | 0.00 | 97 | 1014.7 |
| 20260506233536 | 47 | 153 | 2.0 | 5.0 | 0.00 | 0.09 | 0.00 | 97 | 1014.7 |
| 20260506232516 | 47 | 130 | 3.0 | 5.0 | 0.00 | 0.09 | 0.00 | 97 | 1014.6 |
| 20260506231516 | 47 | 134 | 3.0 | 7.0 | 0.00 | 0.09 | 0.00 | 96 | 1014.8 |
| 20260506230516 | 47 | 149 | 2.0 | 4.0 | 0.00 | 0.09 | 0.00 | 96 | 1014.9 |
| 20260506225515 | 47 | 175 | 1.0 | 5.0 | 0.00 | 0.09 | 0.09 | 96 | 1014.9 |
| 20260506224517 | 47 | 175 | 2.0 | 4.0 | 0.00 | 0.09 | 0.09 | 96 | 1015.0 |
| 20260506223517 | 47 | 175 | 1.0 | 5.0 | 0.00 | 0.09 | 0.09 | 96 | 1015.0 |
| 20260506222517 | 47 | 174 | 2.0 | 6.0 | 0.00 | 0.09 | 0.09 | 96 | 1015.0 |
| 20260506221516 | 47 | 173 | 3.0 | 6.0 | 0.00 | 0.09 | 0.09 | 96 | 1015.0 |
| 20260506215557 | 48 | 171 | 2.0 | 6.0 | 0.00 | 0.09 | 0.09 | 96 | 1015.0 |
| 20260506214537 | 48 | 179 | 2.0 | 4.0 | 0.00 | 0.09 | 0.09 | 96 | 1014.9 |
| 20260506213517 | 48 | 178 | 2.0 | 6.0 | 0.00 | 0.09 | 0.09 | 96 | 1014.9 |
| 20260506212516 | 48 | 178 | 4.0 | 7.0 | 0.00 | 0.09 | 0.09 | 96 | 1014.8 |
| 20260506211517 | 48 | 177 | 3.0 | 7.0 | 0.00 | 0.09 | 0.09 | 96 | 1014.7 |
| 20260506210516 | 48 | 180 | 3.0 | 6.0 | 0.00 | 0.09 | 0.09 | 96 | 1014.8 |
| 20260506205516 | 48 | 176 | 2.0 | 5.0 | 0.00 | 0.09 | 0.09 | 96 | 1014.7 |
| 20260506204516 | 49 | 178 | 3.0 | 8.0 | 0.00 | 0.09 | 0.09 | 96 | 1014.6 |
| 20260506203556 | 49 | 158 | 2.0 | 5.0 | 0.00 | 0.09 | 0.09 | 96 | 1014.7 |
| 20260506202517 | 49 | 152 | 2.0 | 4.0 | 0.00 | 0.09 | 0.09 | 95 | 1014.6 |
| 20260506201517 | 49 | 149 | 2.0 | 5.0 | 0.00 | 0.09 | 0.09 | 95 | 1014.4 |
| 20260506200516 | 49 | 145 | 2.0 | 3.0 | 0.00 | 0.09 | 0.09 | 95 | 1014.5 |
| 20260506195516 | 49 | 142 | 2.0 | 4.0 | 0.00 | 0.09 | 0.09 | 95 | 1014.4 |
| 20260506194516 | 49 | 139 | 1.0 | 4.0 | 0.00 | 0.09 | 0.09 | 95 | 1014.3 |
| 20260506193556 | 50 | 140 | 2.0 | 4.0 | 0.00 | 0.09 | 0.09 | 95 | 1014.2 |
| 20260506192516 | 50 | 142 | 1.0 | 4.0 | 0.00 | 0.09 | 0.09 | 94 | 1014.2 |
| 20260506191516 | 50 | 143 | 1.0 | 4.0 | 0.00 | 0.09 | 0.09 | 94 | 1014.2 |
| 20260506190516 | 50 | 144 | 2.0 | 4.0 | 0.00 | 0.09 | 0.09 | 94 | 1014.2 |